CST,Max TemperatureF,Mean TemperatureF,Min TemperatureF,Max Dew PointF,MeanDew PointF,Min DewpointF,Max Humidity, Mean Humidity, Min Humidity, Max Sea Level PressureIn, Mean Sea Level PressureIn, Min Sea Level PressureIn, Max VisibilityMiles, Mean VisibilityMiles, Min VisibilityMiles, Max Wind SpeedMPH, Mean Wind SpeedMPH, Max Gust SpeedMPH,PrecipitationIn, CloudCover, Events, WindDirDegrees
2011-12-1,80,60,41,59,49,35,89,68,33,30.16,30.09,29.99,10,10,9,18,4,25,0.00,3,,115
2011-12-2,66,64,62,63,61,60,94,89,83,30.24,30.15,30.06,10,10,4,14,8,22,0.01,7,Rain,89
2011-12-3,75,70,64,65,63,59,94,84,71,30.05,29.98,29.89,10,9,2,18,11,25,0.03,8,Rain,140
2011-12-4,70,60,48,66,53,46,94,89,81,30.09,30.00,29.92,10,8,2,18,8,26,0.21,8,Rain,38
2011-12-5,50,46,39,47,40,34,100,80,66,30.29,30.11,29.93,10,9,2,15,10,23,0.32,8,Rain-Thunderstorm,356
2011-12-6,46,40,34,33,28,25,77,61,48,30.42,30.34,30.27,10,10,10,15,10,23,0.00,4,,350
2011-12-7,55,40,26,31,27,23,89,63,31,30.50,30.39,30.29,10,10,10,6,2,,0.00,0,,241
2011-12-8,62,47,32,41,34,27,92,70,35,30.32,30.23,30.12,10,10,10,8,1,,0.00,0,,142
2011-12-9,68,55,42,53,48,40,93,75,59,30.35,30.22,30.12,10,10,9,12,3,18,0.00,4,,43
2011-12-10,60,55,50,48,44,40,83,66,53,30.46,30.41,30.35,10,9,7,16,10,23,0.22,8,Rain,35
2011-12-11,57,52,48,45,40,36,80,68,51,30.41,30.32,30.23,10,10,6,9,6,,0.00,8,,52
2011-12-12,62,54,47,61,53,43,97,90,77,30.24,30.18,30.12,10,9,2,12,6,20,0.01,8,Rain,62
2011-12-13,73,66,60,68,64,60,100,93,78,30.22,30.13,30.05,10,6,1,13,9,20,0.00,8,Rain,129
2011-12-14,75,72,69,70,67,66,100,86,73,30.05,29.97,29.88,10,10,6,17,11,23,0.02,8,Rain,148
2011-12-15,72,64,54,68,62,49,100,91,83,30.13,30.01,29.95,10,9,2,18,7,25,0.03,8,Rain,77
2011-12-16,57,54,51,49,47,42,86,78,66,30.39,30.27,30.15,10,10,10,15,12,22,0.00,8,Rain,20
2011-12-17,57,54,50,44,36,32,69,52,41,30.49,30.42,30.38,10,10,10,13,8,16,0.00,8,,37
2011-12-18,62,58,53,58,45,38,100,64,49,30.40,30.25,30.06,10,10,5,14,5,21,0.00,8,Rain,84
2011-12-19,75,67,57,65,61,56,100,87,62,30.01,29.85,29.75,10,8,3,17,11,33,0.11,7,Rain,167
2011-12-20,61,54,45,54,38,32,97,54,38,30.05,29.96,29.88,10,10,10,12,5,20,0.00,0,,348
2011-12-21,54,49,44,46,38,33,100,69,49,30.06,29.98,29.90,10,9,6,8,3,,0.39,6,Rain-Thunderstorm,22
2011-12-22,69,57,45,49,45,35,100,83,42,30.25,30.04,29.89,10,9,5,13,4,24,0.26,3,Rain,341
2011-12-23,46,44,42,39,37,34,81,75,71,30.41,30.32,30.25,10,10,10,13,10,18,0.00,6,,25
2011-12-24,46,45,44,43,42,39,96,89,80,30.38,30.33,30.28,10,8,2,18,11,23,0.03,8,Rain,13
2011-12-25,51,48,44,43,40,36,96,79,66,30.42,30.37,30.34,10,10,7,10,8,16,0.00,8,,336
2011-12-26,57,49,37,42,36,32,97,67,37,30.32,30.22,30.11,10,10,10,16,6,23,0.01,3,Rain,278
2011-12-27,66,50,33,37,33,27,96,64,22,30.29,30.23,30.18,10,10,10,8,2,,0.00,0,,50
2011-12-28,70,54,37,41,38,34,93,66,31,30.22,30.09,29.98,10,10,10,14,3,23,0.00,0,,227
2011-12-29,70,52,33,39,35,32,96,63,25,30.10,30.01,29.92,10,10,10,7,2,,0.00,0,,248
2011-12-30,75,56,37,43,39,36,96,60,27,30.06,29.99,29.93,10,10,10,8,2,,0.00,0,,38
2011-12-31,77,58,39,47,44,37,89,63,30,30.11,30.04,29.96,10,8,2,10,2,,0.00,0,,237